Ellington Field, TX

4:54 PM CDT on October 15, 2019 (GMT -0500)
Ellington

Weather History for KEFD - September, 2019

Change the Weather History Date:

Monday, September 16, 2019

  Actual Average Record
Temperature  
Mean Temperature 83 °F -  
Max Temperature 89 °F 87 °F 96 °F (2004)
Min Temperature 77 °F 70 °F 62 °F (2008)
Cooling Degree Days 18    
Growing Degree Days 33 (Base 50)    
Moisture  
Dew Point 72 °F    
Average Humidity 71    
Maximum Humidity 89    
Minimum Humidity 58    
Precipitation  
Precipitation 0.00 in - - ()
Sea Level Pressure  
Sea Level Pressure 29.94 in    
Wind  
Wind Speed 6 mph ()    
Max Wind Speed 15 mph    
Max Gust Speed -    
Visibility 9.9 miles    
Events Rain    
Averages and records for this station are not official NWS values.
T = Trace of Precipitation, MM = Missing Value Source: Averaged Metar Reports

Daily Weather History Graph

Daily Weather History Graph

Search for Another Location

Airport or City:

Astronomy

Sep. 16, 2019 Rise Set
Actual Time 7:05 AM CDT 7:24 PM CDT
Civil Twilight 6:41 AM CDT 7:48 PM CDT
Nautical Twilight 6:13 AM CDT 8:16 PM CDT
Astronomical Twilight 5:45 AM CDT 8:44 PM CDT
Moon 9:09 PM CDT (9/16) 9:06 AM CDT (9/16)
Length of Visible Light 13h 06m
Length of Day
12h 19m
Waning Gibbous, 94% of the Moon is Illuminated
Sep 16
Waning Gibbous
Sep 21
Last Quarter
Sep 28
New
Oct 5
First Quarter
Oct 13
Full

Hourly Weather History & Observations

Time (CDT) Temp. Heat Index Dew Point Humidity Pressure Visibility Wind Dir Wind Speed Gust Speed Precip Events Conditions
12:50 AM 80.6 °F 83.9 °F 69.8 °F 70% 29.97 in 10.0 mi Calm Calm - N/A   Mostly Cloudy
3:50 AM 80.6 °F 83.9 °F 69.8 °F 70% 29.97 in 10.0 mi Calm Calm - N/A   Scattered Clouds
5:50 AM 78.8 °F - 69.8 °F 74% 29.97 in 10.0 mi North 3.5 mph - N/A   Scattered Clouds
6:50 AM 78.8 °F - 71.6 °F 78% 29.96 in 10.0 mi NNW 4.6 mph - N/A   Scattered Clouds
7:50 AM 80.6 °F 84.6 °F 71.6 °F 74% 29.97 in 10.0 mi North 5.8 mph - N/A   Partly Cloudy
8:50 AM 84.2 °F 90.9 °F 73.4 °F 70% 29.97 in 10.0 mi NNE 11.5 mph - N/A   Partly Cloudy
9:50 AM 87.8 °F 95.6 °F 73.4 °F 62% 29.97 in 10.0 mi NNE 11.5 mph - N/A   Scattered Clouds
10:50 AM 87.8 °F 95.6 °F 73.4 °F 62% 29.98 in 10.0 mi NE 11.5 mph - N/A   Mostly Cloudy
11:50 AM 89.6 °F 98.2 °F 73.4 °F 59% 29.96 in 10.0 mi ENE 11.5 mph - N/A   Mostly Cloudy
12:50 PM 87.8 °F 93.8 °F 71.6 °F 58% 29.96 in 10.0 mi ENE 15.0 mph - N/A   Mostly Cloudy
1:50 PM 87.8 °F 93.8 °F 71.6 °F 58% 29.96 in 10.0 mi East 10.4 mph - N/A   Mostly Cloudy
2:50 PM 87.8 °F 93.8 °F 71.6 °F 58% 29.92 in 10.0 mi East 9.2 mph - N/A   Mostly Cloudy
3:50 PM 87.8 °F 93.8 °F 71.6 °F 58% 29.92 in 10.0 mi NE 8.1 mph - N/A   Mostly Cloudy
4:50 PM 82.4 °F 88.2 °F 73.4 °F 74% 29.89 in 10.0 mi ENE 12.7 mph - N/A   Mostly Cloudy
5:50 PM 80.6 °F 85.4 °F 73.4 °F 79% 29.90 in 10.0 mi East 12.7 mph - N/A   Mostly Cloudy
6:50 PM 77.0 °F - 73.4 °F 89% 29.89 in 10.0 mi ENE 8.1 mph - N/A   Mostly Cloudy
7:50 PM 78.8 °F - 73.4 °F 83% 29.90 in 10.0 mi NE 8.1 mph - N/A   Mostly Cloudy
8:50 PM 77.0 °F - 71.6 °F 83% 29.91 in 10.0 mi NE 4.6 mph - N/A   Scattered Clouds
9:50 PM 78.8 °F - 71.6 °F 78% 29.90 in 10.0 mi NE 4.6 mph - N/A   Scattered Clouds
10:50 PM 78.8 °F - 71.6 °F 78% 29.90 in 7.0 mi ESE 11.5 mph - N/A Rain Rain
11:50 PM 78.8 °F - 73.4 °F 83% 29.91 in 10.0 mi NNE 4.6 mph - N/A   Mostly Cloudy